| time (UTC) | temp F | wind direction | speed knots | gust knots | rain 1hr in | rain 24hr in | rain mn in | humidity % | barometer mb |
| 20260508100335 | 30 | 344 | 0.0 | 0.0 | 0.00 | 0.00 | 0.00 | 98 | 1002.2 |
| 20260508095830 | 30 | 344 | 0.0 | 0.0 | 0.00 | 0.00 | 0.00 | 98 | 1002.0 |
| 20260508095328 | 30 | 344 | 0.0 | 0.0 | 0.00 | 0.00 | 0.00 | 98 | 1002.1 |
| 20260508094825 | 30 | 344 | 0.0 | 0.0 | 0.00 | 0.00 | 0.00 | 98 | 1001.9 |
| 20260508094322 | 30 | 344 | 0.0 | 0.0 | 0.00 | 0.00 | 0.00 | 98 | 1001.9 |
| 20260508093819 | 30 | 345 | 0.0 | 0.0 | 0.00 | 0.00 | 0.00 | 98 | 1001.9 |
| 20260508093316 | 30 | 336 | 0.0 | 0.0 | 0.00 | 0.00 | 0.00 | 97 | 1002.0 |
| 20260508092814 | 30 | 336 | 0.0 | 0.0 | 0.00 | 0.00 | 0.00 | 97 | 1001.9 |
| 20260508092313 | 30 | 349 | 0.0 | 0.0 | 0.00 | 0.00 | 0.00 | 97 | 1001.8 |
| 20260508091809 | 30 | 349 | 0.0 | 0.0 | 0.00 | 0.00 | 0.00 | 97 | 1001.8 |
| 20260508091306 | 31 | 349 | 0.0 | 0.0 | 0.00 | 0.00 | 0.00 | 97 | 1002.0 |
| 20260508090804 | 31 | 349 | 0.0 | 0.0 | 0.00 | 0.00 | 0.00 | 97 | 1001.7 |
| 20260508090302 | 31 | 351 | 0.0 | 0.0 | 0.00 | 0.00 | 0.00 | 97 | 1001.8 |
| 20260508085757 | 31 | 344 | 0.0 | 0.0 | 0.00 | 0.00 | 0.00 | 97 | 1001.6 |
| 20260508085254 | 31 | 344 | 0.0 | 0.0 | 0.00 | 0.00 | 0.00 | 96 | 1001.7 |
| 20260508084750 | 31 | 344 | 0.0 | 0.0 | 0.00 | 0.00 | 0.00 | 96 | 1001.7 |
| 20260508084248 | 32 | 347 | 0.0 | 0.0 | 0.00 | 0.00 | 0.00 | 96 | 1001.6 |
| 20260508083745 | 32 | 347 | 0.0 | 0.0 | 0.00 | 0.00 | 0.00 | 96 | 1001.6 |
| 20260508083242 | 32 | 347 | 0.0 | 0.0 | 0.00 | 0.00 | 0.00 | 95 | 1001.5 |
| 20260508082736 | 32 | 349 | 0.0 | 0.0 | 0.00 | 0.00 | 0.00 | 95 | 1001.6 |
| 20260508082235 | 32 | 344 | 0.0 | 0.0 | 0.00 | 0.00 | 0.00 | 95 | 1001.6 |
| 20260508081732 | 32 | 341 | 0.0 | 0.0 | 0.00 | 0.00 | 0.00 | 95 | 1001.4 |
| 20260508081228 | 0 | 0.0 | 0.0 | 0.00 | 0.00 | 0.00 | 1001.6 | ||
| 20260508080725 | 0 | 0.0 | 0.0 | 0.00 | 0.00 | 0.00 | 1001.4 | ||
| 20260508080223 | 0 | 0.0 | 0.0 | 0.00 | 0.00 | 0.00 | 1001.5 | ||
| 20260508075719 | 0 | 0.0 | 0.0 | 0.00 | 0.00 | 0.00 | 1001.3 | ||
| 20260508075217 | 0 | 0.0 | 0.0 | 0.00 | 0.00 | 0.00 | 1001.3 | ||
| 20260508074714 | 0 | 0.0 | 0.0 | 0.00 | 0.00 | 0.00 | 1001.3 | ||
| 20260508074212 | 0 | 0.0 | 0.0 | 0.00 | 0.00 | 0.00 | 1001.4 | ||
| 20260508073708 | 36 | 335 | 0.0 | 0.0 | 0.00 | 0.00 | 0.00 | 88 | 1001.3 |
| 20260508073207 | 36 | 335 | 0.0 | 0.0 | 0.00 | 0.00 | 0.00 | 88 | 1001.4 |
| 20260508072702 | 36 | 335 | 0.0 | 0.0 | 0.00 | 0.00 | 0.00 | 88 | 1001.3 |
| 20260508072159 | 36 | 335 | 0.0 | 0.0 | 0.00 | 0.00 | 0.00 | 88 | 1001.5 |
| 20260508071656 | 36 | 335 | 0.0 | 0.0 | 0.00 | 0.00 | 0.00 | 88 | 1001.4 |
| 20260508071155 | 36 | 335 | 0.0 | 0.0 | 0.00 | 0.00 | 0.00 | 88 | 1001.5 |
| 20260508070652 | 36 | 335 | 0.0 | 0.0 | 0.00 | 0.00 | 0.00 | 88 | 1001.4 |
| 20260508070150 | 36 | 335 | 0.0 | 0.0 | 0.00 | 0.00 | 0.00 | 88 | 1001.2 |
| 20260508065647 | 36 | 335 | 0.0 | 0.0 | 0.00 | 0.00 | 0.00 | 88 | 1001.4 |
| 20260508065145 | 36 | 335 | 0.0 | 0.0 | 0.00 | 0.00 | 0.00 | 88 | 1001.4 |
| 20260508064642 | 36 | 335 | 0.0 | 0.0 | 0.00 | 0.00 | 0.00 | 88 | 1001.5 |
| 20260508064140 | 36 | 335 | 0.0 | 0.0 | 0.00 | 0.00 | 0.00 | 88 | 1001.4 |
| 20260508063637 | 37 | 336 | 0.0 | 0.0 | 0.00 | 0.00 | 0.00 | 87 | 1001.8 |
| 20260508063136 | 37 | 333 | 0.0 | 0.0 | 0.00 | 0.00 | 0.00 | 88 | 1001.6 |
| 20260508062633 | 37 | 324 | 0.0 | 0.0 | 0.00 | 0.00 | 0.00 | 87 | 1001.6 |
| 20260508062129 | 37 | 319 | 0.9 | 1.7 | 0.00 | 0.00 | 0.00 | 85 | 1001.6 |
| 20260508061627 | 36 | 327 | 0.9 | 0.9 | 0.00 | 0.00 | 0.00 | 87 | 1001.6 |
| 20260508061124 | 36 | 340 | 0.0 | 0.0 | 0.00 | 0.00 | 0.00 | 89 | 1001.7 |
| 20260508060620 | 36 | 337 | 0.0 | 0.0 | 0.00 | 0.00 | 0.00 | 87 | 1001.6 |
| 20260508060118 | 36 | 333 | 0.0 | 0.0 | 0.00 | 0.00 | 0.00 | 88 | 1001.6 |
| 20260508055613 | 35 | 335 | 0.9 | 0.9 | 0.00 | 0.00 | 0.00 | 89 | 1001.9 |
| 20260508055110 | 35 | 346 | 0.0 | 0.0 | 0.00 | 0.00 | 0.00 | 90 | 1001.8 |
| 20260508054607 | 35 | 305 | 0.0 | 0.0 | 0.00 | 0.00 | 0.00 | 92 | 1001.7 |
| 20260508054104 | 35 | 305 | 0.0 | 0.0 | 0.00 | 0.00 | 0.00 | 92 | 1001.8 |
| 20260508053601 | 34 | 344 | 0.0 | 1.7 | 0.00 | 0.00 | 0.00 | 92 | 1001.8 |
| 20260508053059 | 33 | 335 | 0.0 | 0.0 | 0.00 | 0.00 | 0.00 | 95 | 1001.9 |
| 20260508052556 | 33 | 340 | 0.0 | 0.0 | 0.00 | 0.00 | 0.00 | 95 | 1001.8 |
| 20260508052053 | 33 | 352 | 0.0 | 0.0 | 0.00 | 0.00 | 0.00 | 96 | 1001.9 |
| 20260508051549 | 33 | 345 | 0.0 | 0.0 | 0.00 | 0.00 | 0.00 | 96 | 1002.0 |
| 20260508051045 | 33 | 342 | 0.0 | 0.0 | 0.00 | 0.00 | 0.00 | 96 | 1002.0 |
| 20260508050541 | 33 | 347 | 0.0 | 0.0 | 0.00 | 0.00 | 0.00 | 95 | 1001.9 |
| 20260508050038 | 33 | 347 | 0.0 | 0.0 | 0.00 | 0.00 | 0.00 | 95 | 1002.1 |
| 20260508045534 | 33 | 347 | 0.0 | 0.0 | 0.00 | 0.00 | 0.00 | 94 | 1002.0 |
| 20260508045032 | 33 | 20 | 0.0 | 0.0 | 0.00 | 0.00 | 0.00 | 94 | 1002.1 |
| 20260508044529 | 34 | 354 | 0.0 | 0.0 | 0.00 | 0.00 | 0.00 | 92 | 1002.2 |
| 20260508044025 | 34 | 347 | 0.0 | 0.0 | 0.00 | 0.00 | 0.00 | 92 | 1002.1 |
| 20260508043522 | 34 | 351 | 0.0 | 0.0 | 0.00 | 0.00 | 0.00 | 91 | 1002.3 |
| 20260508043019 | 34 | 349 | 0.0 | 0.0 | 0.00 | 0.00 | 0.00 | 93 | 1002.4 |
| 20260508042516 | 35 | 346 | 0.0 | 0.0 | 0.00 | 0.00 | 0.00 | 93 | 1002.2 |
| 20260508042014 | 35 | 344 | 0.0 | 0.0 | 0.00 | 0.00 | 0.00 | 94 | 1002.3 |
| 20260508041510 | 33 | 344 | 0.0 | 0.0 | 0.00 | 0.00 | 0.00 | 94 | 1002.4 |
| 20260508041006 | 33 | 344 | 0.0 | 0.0 | 0.00 | 0.00 | 0.00 | 94 | 1002.3 |
| 20260508040504 | 34 | 350 | 0.0 | 0.0 | 0.00 | 0.00 | 0.00 | 92 | 1002.5 |
| 20260508040001 | 34 | 350 | 0.0 | 0.0 | 0.00 | 0.17 | 0.17 | 91 | 1002.6 |
| 20260508035458 | 35 | 351 | 0.0 | 0.0 | 0.00 | 0.17 | 0.17 | 91 | 1002.8 |
| 20260508034954 | 36 | 352 | 0.0 | 0.0 | 0.00 | 0.17 | 0.17 | 90 | 1002.4 |
| 20260508034452 | 36 | 352 | 0.0 | 0.0 | 0.00 | 0.17 | 0.17 | 90 | 1002.7 |
| 20260508033948 | 36 | 337 | 0.0 | 0.0 | 0.00 | 0.17 | 0.17 | 89 | 1002.6 |
| 20260508033447 | 36 | 339 | 0.0 | 0.0 | 0.00 | 0.17 | 0.17 | 90 | 1002.8 |
| 20260508032944 | 35 | 330 | 0.0 | 0.0 | 0.00 | 0.17 | 0.17 | 90 | 1002.7 |
| 20260508032441 | 35 | 27 | 0.0 | 0.0 | 0.00 | 0.17 | 0.17 | 90 | 1002.7 |
| 20260508031938 | 36 | 354 | 0.0 | 0.0 | 0.00 | 0.17 | 0.17 | 90 | 1002.6 |
| 20260508031435 | 36 | 354 | 0.0 | 0.0 | 0.00 | 0.17 | 0.17 | 88 | 1002.7 |
| 20260508030931 | 36 | 354 | 0.0 | 0.0 | 0.00 | 0.17 | 0.17 | 87 | 1002.5 |
| 20260508030428 | 37 | 348 | 0.0 | 0.0 | 0.00 | 0.17 | 0.17 | 83 | 1002.4 |
| 20260508025925 | 37 | 348 | 0.0 | 0.0 | 0.00 | 0.17 | 0.17 | 83 | 1002.1 |
| 20260508025422 | 37 | 353 | 0.0 | 0.0 | 0.00 | 0.17 | 0.17 | 83 | 1002.4 |
| 20260508024919 | 38 | 353 | 0.0 | 0.0 | 0.00 | 0.17 | 0.17 | 84 | 1002.3 |
| 20260508024416 | 37 | 353 | 0.0 | 0.0 | 0.00 | 0.17 | 0.17 | 81 | 1002.3 |
| 20260508023912 | 38 | 353 | 0.0 | 0.0 | 0.00 | 0.17 | 0.17 | 81 | 1002.4 |
| 20260508023409 | 39 | 353 | 0.0 | 0.0 | 0.00 | 0.17 | 0.17 | 80 | 1002.2 |
| 20260508022906 | 39 | 353 | 0.0 | 0.0 | 0.00 | 0.17 | 0.17 | 83 | 1002.2 |
| 20260508022401 | 39 | 359 | 0.0 | 0.0 | 0.00 | 0.17 | 0.17 | 80 | 1002.3 |
| 20260508021858 | 40 | 337 | 0.0 | 0.0 | 0.00 | 0.17 | 0.17 | 76 | 1002.5 |
| 20260508021354 | 40 | 333 | 0.0 | 0.0 | 0.00 | 0.17 | 0.17 | 76 | 1002.1 |
| 20260508020851 | 39 | 330 | 0.0 | 0.0 | 0.00 | 0.17 | 0.17 | 82 | 1002.2 |
| 20260508020349 | 41 | 349 | 0.0 | 0.0 | 0.00 | 0.17 | 0.17 | 76 | 1002.2 |
| 20260508015845 | 41 | 349 | 0.0 | 0.0 | 0.00 | 0.17 | 0.17 | 76 | 1002.3 |
| 20260508015343 | 41 | 349 | 0.0 | 0.0 | 0.00 | 0.17 | 0.17 | 76 | 1002.4 |
| 20260508014839 | 41 | 349 | 0.0 | 0.0 | 0.00 | 0.17 | 0.17 | 76 | 1002.3 |
| 20260508014337 | 43 | 331 | 0.0 | 0.0 | 0.00 | 0.17 | 0.17 | 69 | 1002.3 |
| 20260508013831 | 43 | 331 | 0.0 | 0.0 | 0.00 | 0.17 | 0.17 | 69 | 1002.4 |
| 20260508013328 | 44 | 348 | 0.0 | 0.0 | 0.00 | 0.17 | 0.17 | 71 | 1002.4 |
| 20260508012826 | 44 | 329 | 0.0 | 0.0 | 0.00 | 0.17 | 0.17 | 68 | 1002.5 |
| 20260508012323 | 44 | 326 | 0.0 | 1.7 | 0.00 | 0.17 | 0.17 | 67 | 1002.3 |
| 20260508011821 | 45 | 333 | 0.0 | 1.7 | 0.00 | 0.17 | 0.17 | 62 | 1002.6 |
| 20260508011318 | 46 | 292 | 0.0 | 0.0 | 0.00 | 0.17 | 0.17 | 63 | 1002.4 |
| 20260508010815 | 49 | 349 | 1.7 | 3.5 | 0.00 | 0.17 | 0.17 | 54 | 1002.4 |
| 20260508010313 | 49 | 349 | 1.7 | 3.5 | 0.00 | 0.17 | 0.17 | 54 | 1002.4 |
| 20260508005809 | 49 | 349 | 1.7 | 3.5 | 0.00 | 0.17 | 0.17 | 54 | 1002.2 |
| 20260508005306 | 49 | 349 | 1.7 | 3.5 | 0.00 | 0.17 | 0.17 | 54 | 1002.4 |
| 20260508004802 | 49 | 349 | 1.7 | 3.5 | 0.00 | 0.17 | 0.17 | 54 | 1002.2 |
| 20260508004259 | 49 | 349 | 1.7 | 3.5 | 0.00 | 0.17 | 0.17 | 54 | 1002.3 |
| 20260508003755 | 49 | 349 | 1.7 | 3.5 | 0.00 | 0.17 | 0.17 | 54 | 1002.2 |
| 20260508003253 | 49 | 349 | 1.7 | 3.5 | 0.00 | 0.17 | 0.17 | 54 | 1002.2 |
| 20260508002749 | 50 | 337 | 0.0 | 0.0 | 0.00 | 0.17 | 0.17 | 56 | 1002.2 |
| 20260508002246 | 50 | 329 | 0.9 | 0.9 | 0.00 | 0.17 | 0.17 | 53 | 1002.1 |
| 20260508001742 | 50 | 329 | 0.9 | 0.9 | 0.00 | 0.17 | 0.17 | 53 | 1002.3 |
| 20260508001238 | 50 | 329 | 0.9 | 0.9 | 0.00 | 0.17 | 0.17 | 53 | 1002.0 |
| 20260508000734 | 51 | 357 | 0.9 | 0.9 | 0.00 | 0.17 | 0.17 | 55 | 1001.9 |
| 20260508000234 | 51 | 357 | 0.9 | 0.9 | 0.00 | 0.17 | 0.17 | 55 | 1001.6 |
| 20260507235728 | 51 | 357 | 0.9 | 0.9 | 0.00 | 0.17 | 0.17 | 55 | 1001.5 |
| 20260507235225 | 52 | 345 | 3.5 | 5.2 | 0.00 | 0.17 | 0.17 | 54 | 1001.4 |
| 20260507234722 | 53 | 351 | 0.9 | 0.9 | 0.00 | 0.17 | 0.17 | 54 | 1001.4 |
| 20260507234219 | 53 | 346 | 1.7 | 2.6 | 0.00 | 0.17 | 0.17 | 53 | 1001.1 |
| 20260507233715 | 53 | 1 | 3.5 | 5.2 | 0.00 | 0.17 | 0.17 | 50 | 1001.1 |
| 20260507233214 | 54 | 107 | 4.3 | 5.2 | 0.00 | 0.17 | 0.17 | 51 | 1000.8 |
| 20260507232710 | 54 | 288 | 1.7 | 3.5 | 0.00 | 0.17 | 0.17 | 58 | 1000.9 |
| 20260507232208 | 55 | 12 | 0.9 | 6.1 | 0.00 | 0.17 | 0.17 | 54 | 1000.8 |
| 20260507231704 | 55 | 25 | 1.7 | 2.6 | 0.00 | 0.17 | 0.17 | 55 | 1000.5 |
| 20260507231201 | 55 | 3 | 3.5 | 3.5 | 0.00 | 0.17 | 0.17 | 57 | 1000.2 |
| 20260507230657 | 55 | 340 | 2.6 | 2.6 | 0.00 | 0.17 | 0.17 | 58 | 1000.1 |
| 20260507230155 | 55 | 288 | 4.3 | 7.0 | 0.00 | 0.17 | 0.17 | 58 | 1000.1 |
| 20260507225654 | 56 | 332 | 1.7 | 1.7 | 0.00 | 0.17 | 0.17 | 60 | 999.9 |
| 20260507225151 | 57 | 356 | 0.9 | 1.7 | 0.00 | 0.17 | 0.17 | 59 | 999.9 |
| 20260507224647 | 57 | 0 | 1.7 | 5.2 | 0.00 | 0.17 | 0.17 | 61 | 999.5 |
| 20260507224144 | 57 | 9 | 1.7 | 2.6 | 0.00 | 0.17 | 0.17 | 66 | 999.4 |
| 20260507223640 | 58 | 305 | 0.9 | 1.7 | 0.00 | 0.17 | 0.17 | 65 | 999.3 |
| 20260507223137 | 58 | 313 | 0.9 | 0.9 | 0.00 | 0.17 | 0.17 | 65 | 999.2 |
| 20260507222634 | 59 | 11 | 5.2 | 6.1 | 0.00 | 0.17 | 0.17 | 64 | 999.4 |
| 20260507222130 | 59 | 255 | 0.9 | 0.9 | 0.00 | 0.17 | 0.17 | 60 | 999.2 |
| 20260507221626 | 59 | 3 | 1.7 | 1.7 | 0.00 | 0.17 | 0.17 | 59 | 999.1 |
| 20260507221123 | 59 | 3 | 1.7 | 1.7 | 0.00 | 0.17 | 0.17 | 59 | 999.1 |
| 20260507220620 | 59 | 3 | 1.7 | 1.7 | 0.00 | 0.17 | 0.17 | 59 | 999.0 |
| 20260507220118 | 59 | 3 | 1.7 | 1.7 | 0.00 | 0.17 | 0.17 | 59 | 998.9 |
| 20260507215613 | 60 | 354 | 0.9 | 0.9 | 0.00 | 0.17 | 0.17 | 52 | 999.0 |
| 20260507215112 | 60 | 342 | 0.0 | 0.0 | 0.00 | 0.17 | 0.17 | 56 | 999.1 |
| 20260507214609 | 62 | 329 | 0.9 | 0.9 | 0.00 | 0.17 | 0.17 | 52 | 998.9 |
| 20260507214104 | 60 | 329 | 1.7 | 2.6 | 0.00 | 0.17 | 0.17 | 54 | 999.1 |
| 20260507213601 | 60 | 329 | 1.7 | 2.6 | 0.00 | 0.17 | 0.17 | 54 | 999.0 |
| 20260507213058 | 60 | 329 | 1.7 | 2.6 | 0.00 | 0.17 | 0.17 | 54 | 999.2 |
| 20260507212554 | 60 | 207 | 1.7 | 2.6 | 0.00 | 0.17 | 0.17 | 56 | 998.9 |
| 20260507212051 | 61 | 253 | 1.7 | 2.6 | 0.00 | 0.17 | 0.17 | 55 | 998.9 |
| 20260507211548 | 59 | 286 | 0.9 | 3.5 | 0.00 | 0.17 | 0.17 | 58 | 998.9 |
| 20260507211044 | 59 | 293 | 0.9 | 0.9 | 0.00 | 0.17 | 0.17 | 61 | 998.8 |
| 20260507210541 | 59 | 294 | 1.7 | 2.6 | 0.00 | 0.17 | 0.17 | 58 | 998.7 |
| 20260507210038 | 59 | 114 | 1.7 | 2.6 | 0.00 | 0.17 | 0.17 | 59 | 998.9 |
| 20260507205535 | 59 | 295 | 0.9 | 0.9 | 0.00 | 0.17 | 0.17 | 57 | 998.8 |
| 20260507205031 | 60 | 340 | 0.9 | 1.7 | 0.00 | 0.17 | 0.17 | 55 | 998.6 |
| 20260507204527 | 60 | 300 | 0.9 | 0.9 | 0.00 | 0.17 | 0.17 | 57 | 998.5 |
| 20260507204025 | 60 | 267 | 3.5 | 6.1 | 0.00 | 0.17 | 0.17 | 52 | 998.5 |
| 20260507203523 | 60 | 322 | 0.0 | 1.7 | 0.00 | 0.17 | 0.17 | 60 | 998.7 |
| 20260507203020 | 60 | 340 | 0.0 | 2.6 | 0.00 | 0.17 | 0.17 | 58 | 998.7 |
| 20260507202515 | 60 | 250 | 0.9 | 1.7 | 0.00 | 0.17 | 0.17 | 60 | 998.5 |
| 20260507202012 | 59 | 19 | 0.0 | 0.9 | 0.00 | 0.17 | 0.17 | 62 | 998.6 |
| 20260507201508 | 59 | 316 | 0.9 | 0.9 | 0.00 | 0.17 | 0.17 | 61 | 998.4 |
| 20260507201004 | 59 | 315 | 0.9 | 3.5 | 0.00 | 0.17 | 0.17 | 62 | 998.6 |
| 20260507200459 | 59 | 265 | 3.5 | 3.5 | 0.00 | 0.17 | 0.17 | 61 | 998.5 |
| 20260507195955 | 59 | 345 | 0.0 | 1.7 | 0.00 | 0.17 | 0.17 | 60 | 998.5 |
| 20260507195453 | 59 | 358 | 0.0 | 1.7 | 0.00 | 0.17 | 0.17 | 60 | 998.6 |
| 20260507194950 | 59 | 359 | 0.9 | 2.6 | 0.00 | 0.17 | 0.17 | 59 | 998.4 |
| 20260507194447 | 59 | 285 | 0.9 | 3.5 | 0.00 | 0.17 | 0.17 | 59 | 998.5 |
| 20260507193942 | 59 | 1 | 0.0 | 0.0 | 0.00 | 0.17 | 0.17 | 58 | 998.6 |
| 20260507193440 | 60 | 19 | 0.9 | 3.5 | 0.00 | 0.17 | 0.17 | 57 | 998.6 |
| 20260507192937 | 64 | 8 | 1.7 | 1.7 | 0.00 | 0.17 | 0.17 | 51 | 998.6 |
| 20260507192433 | 64 | 8 | 1.7 | 1.7 | 0.00 | 0.17 | 0.17 | 51 | 998.5 |
| 20260507191930 | 62 | 55 | 0.9 | 0.9 | 0.00 | 0.17 | 0.17 | 50 | 998.5 |
| 20260507191426 | 64 | 354 | 0.0 | 0.0 | 0.00 | 0.17 | 0.17 | 50 | 998.6 |
| 20260507190922 | 63 | 17 | 0.0 | 0.0 | 0.00 | 0.17 | 0.17 | 53 | 998.4 |
| 20260507190420 | 63 | 17 | 0.0 | 0.0 | 0.00 | 0.17 | 0.17 | 53 | 998.4 |
| 20260507185919 | 62 | 218 | 5.2 | 7.0 | 0.00 | 0.17 | 0.17 | 48 | 998.5 |
| 20260507185416 | 62 | 218 | 5.2 | 7.0 | 0.00 | 0.17 | 0.17 | 48 | 998.5 |
| 20260507184913 | 62 | 216 | 1.7 | 6.1 | 0.00 | 0.17 | 0.17 | 49 | 998.8 |
| 20260507184410 | 62 | 322 | 0.9 | 0.9 | 0.00 | 0.17 | 0.17 | 49 | 998.6 |
| 20260507183908 | 62 | 21 | 1.7 | 1.7 | 0.00 | 0.17 | 0.17 | 52 | 998.8 |
| 20260507183405 | 63 | 349 | 1.7 | 2.6 | 0.00 | 0.17 | 0.17 | 46 | 998.7 |
| 20260507182902 | 63 | 18 | 0.9 | 0.9 | 0.00 | 0.17 | 0.17 | 50 | 998.8 |
| 20260507182357 | 62 | 349 | 2.6 | 2.6 | 0.00 | 0.17 | 0.17 | 48 | 998.9 |
| 20260507181854 | 63 | 357 | 0.9 | 0.9 | 0.00 | 0.17 | 0.17 | 46 | 999.0 |
| 20260507181350 | 63 | 322 | 0.9 | 1.7 | 0.00 | 0.17 | 0.17 | 50 | 999.2 |
| 20260507180847 | 64 | 13 | 1.7 | 3.5 | 0.00 | 0.17 | 0.17 | 46 | 998.9 |
| 20260507180344 | 62 | 271 | 2.6 | 2.6 | 0.00 | 0.17 | 0.17 | 50 | 999.1 |
| 20260507175840 | 61 | 43 | 0.9 | 1.7 | 0.00 | 0.17 | 0.17 | 52 | 999.1 |
| 20260507175337 | 63 | 302 | 1.7 | 1.7 | 0.00 | 0.17 | 0.17 | 49 | 999.1 |
| 20260507174834 | 63 | 302 | 1.7 | 1.7 | 0.00 | 0.17 | 0.17 | 49 | 999.3 |
| 20260507174331 | 63 | 302 | 1.7 | 1.7 | 0.00 | 0.17 | 0.17 | 49 | 999.2 |
| 20260507173829 | 63 | 302 | 1.7 | 1.7 | 0.00 | 0.17 | 0.17 | 49 | 999.4 |
| 20260507173326 | 63 | 302 | 1.7 | 1.7 | 0.00 | 0.17 | 0.17 | 49 | 999.3 |
| 20260507172822 | 63 | 74 | 0.9 | 1.7 | 0.00 | 0.17 | 0.17 | 48 | 999.5 |
| 20260507172319 | 63 | 74 | 0.9 | 1.7 | 0.00 | 0.17 | 0.17 | 48 | 999.4 |
| 20260507171815 | 63 | 265 | 2.6 | 5.2 | 0.00 | 0.17 | 0.17 | 52 | 999.3 |
| 20260507171312 | 63 | 265 | 2.6 | 5.2 | 0.00 | 0.17 | 0.17 | 52 | 999.3 |
| 20260507170809 | 63 | 265 | 2.6 | 5.2 | 0.00 | 0.17 | 0.17 | 52 | 999.3 |
| 20260507170305 | 64 | 277 | 1.7 | 3.5 | 0.00 | 0.17 | 0.17 | 54 | 999.5 |
| 20260507165801 | 63 | 153 | 1.7 | 3.5 | 0.00 | 0.17 | 0.17 | 57 | 999.6 |
| 20260507165257 | 63 | 153 | 1.7 | 3.5 | 0.00 | 0.17 | 0.17 | 57 | 999.7 |
| 20260507164754 | 62 | 258 | 0.9 | 1.7 | 0.00 | 0.17 | 0.17 | 56 | 999.8 |
| 20260507164251 | 62 | 275 | 3.5 | 3.5 | 0.00 | 0.17 | 0.17 | 54 | 1000.0 |
| 20260507163748 | 61 | 309 | 1.7 | 2.6 | 0.00 | 0.17 | 0.17 | 61 | 999.8 |
| 20260507163246 | 60 | 249 | 3.5 | 3.5 | 0.00 | 0.17 | 0.17 | 54 | 1000.0 |
| 20260507162741 | 60 | 289 | 1.7 | 2.6 | 0.00 | 0.17 | 0.17 | 55 | 1000.2 |
| 20260507162237 | 61 | 329 | 1.7 | 2.6 | 0.00 | 0.17 | 0.17 | 53 | 1000.3 |
| 20260507161735 | 61 | 329 | 1.7 | 5.2 | 0.00 | 0.17 | 0.17 | 54 | 1000.2 |
| 20260507161231 | 61 | 175 | 3.5 | 6.1 | 0.00 | 0.17 | 0.17 | 54 | 1000.2 |
| 20260507160727 | 59 | 9 | 3.5 | 3.5 | 0.00 | 0.17 | 0.17 | 58 | 1000.4 |
| 20260507160223 | 60 | 324 | 0.0 | 0.9 | 0.00 | 0.17 | 0.17 | 57 | 1000.3 |
| 20260507155720 | 59 | 52 | 0.9 | 1.7 | 0.00 | 0.17 | 0.17 | 60 | 1000.1 |
| 20260507155216 | 59 | 52 | 0.9 | 1.7 | 0.00 | 0.17 | 0.17 | 60 | 1000.5 |
| 20260507154712 | 59 | 52 | 0.9 | 1.7 | 0.00 | 0.17 | 0.17 | 60 | 1000.3 |
| 20260507154210 | 59 | 52 | 0.9 | 1.7 | 0.00 | 0.17 | 0.17 | 60 | 1000.3 |
| 20260507153707 | 59 | 52 | 0.9 | 1.7 | 0.00 | 0.17 | 0.17 | 60 | 1000.4 |
| 20260507153203 | 59 | 52 | 0.9 | 1.7 | 0.00 | 0.17 | 0.17 | 60 | 1000.6 |
| 20260507152659 | 59 | 52 | 0.9 | 1.7 | 0.00 | 0.17 | 0.17 | 60 | 1000.4 |
| 20260507152155 | 59 | 3 | 0.0 | 0.9 | 0.00 | 0.17 | 0.17 | 63 | 1000.5 |
| 20260507151652 | 57 | 58 | 2.6 | 2.6 | 0.00 | 0.17 | 0.17 | 65 | 1000.6 |
| 20260507151148 | 57 | 58 | 2.6 | 2.6 | 0.00 | 0.17 | 0.17 | 65 | 1000.8 |
| 20260507150646 | 57 | 58 | 2.6 | 2.6 | 0.00 | 0.17 | 0.17 | 65 | 1000.8 |
| 20260507150142 | 57 | 58 | 2.6 | 2.6 | 0.00 | 0.17 | 0.17 | 65 | 1000.9 |
| 20260507145637 | 58 | 189 | 1.7 | 2.6 | 0.00 | 0.17 | 0.17 | 61 | 1001.0 |
| 20260507145135 | 58 | 189 | 1.7 | 2.6 | 0.00 | 0.17 | 0.17 | 61 | 1001.0 |
| 20260507144631 | 58 | 309 | 0.9 | 5.2 | 0.00 | 0.17 | 0.17 | 64 | 1001.1 |
| 20260507144130 | 58 | 322 | 0.0 | 0.9 | 0.00 | 0.17 | 0.17 | 69 | 1001.2 |
| 20260507143626 | 58 | 322 | 0.0 | 0.9 | 0.00 | 0.17 | 0.17 | 69 | 1001.3 |
| 20260507143123 | 58 | 322 | 0.0 | 0.9 | 0.00 | 0.17 | 0.17 | 69 | 1001.2 |
| 20260507142619 | 58 | 319 | 1.7 | 1.7 | 0.00 | 0.17 | 0.17 | 67 | 1001.4 |
| 20260507142116 | 58 | 356 | 0.0 | 0.9 | 0.00 | 0.17 | 0.17 | 69 | 1001.4 |
| 20260507141612 | 56 | 338 | 0.0 | 0.9 | 0.00 | 0.17 | 0.17 | 72 | 1001.3 |
| 20260507141109 | 55 | 37 | 0.9 | 1.7 | 0.00 | 0.17 | 0.17 | 70 | 1001.4 |
| 20260507140605 | 55 | 37 | 0.9 | 1.7 | 0.00 | 0.17 | 0.17 | 70 | 1001.2 |
| 20260507135600 | 55 | 72 | 0.9 | 1.7 | 0.00 | 0.17 | 0.17 | 72 | 1001.3 |
| 20260507135057 | 55 | 72 | 0.9 | 1.7 | 0.00 | 0.17 | 0.17 | 72 | 1001.4 |
| 20260507134553 | 56 | 315 | 1.7 | 1.7 | 0.00 | 0.17 | 0.17 | 74 | 1001.5 |
| 20260507134049 | 55 | 12 | 1.7 | 1.7 | 0.00 | 0.17 | 0.17 | 72 | 1001.5 |
| 20260507133546 | 54 | 334 | 0.9 | 2.6 | 0.00 | 0.17 | 0.17 | 73 | 1001.5 |
| 20260507133044 | 54 | 314 | 1.7 | 1.7 | 0.00 | 0.17 | 0.17 | 76 | 1001.4 |
| 20260507132540 | 54 | 289 | 1.7 | 1.7 | 0.00 | 0.17 | 0.17 | 79 | 1001.6 |
| 20260507132036 | 53 | 289 | 2.6 | 2.6 | 0.00 | 0.17 | 0.17 | 79 | 1001.6 |
| 20260507131533 | 53 | 354 | 1.7 | 2.6 | 0.00 | 0.17 | 0.17 | 76 | 1001.6 |
| 20260507131031 | 53 | 40 | 2.6 | 3.5 | 0.00 | 0.17 | 0.17 | 77 | 1001.6 |
| 20260507130527 | 53 | 318 | 0.9 | 0.9 | 0.00 | 0.17 | 0.17 | 82 | 1001.5 |
| 20260507130026 | 53 | 255 | 4.3 | 6.1 | 0.00 | 0.17 | 0.17 | 81 | 1001.8 |
| 20260507125524 | 53 | 347 | 2.6 | 3.5 | 0.00 | 0.17 | 0.17 | 79 | 1001.6 |
| 20260507125021 | 53 | 15 | 0.9 | 3.5 | 0.00 | 0.17 | 0.17 | 81 | 1001.6 |
| 20260507124517 | 53 | 323 | 1.7 | 2.6 | 0.00 | 0.17 | 0.17 | 80 | 1001.5 |
| 20260507124016 | 53 | 13 | 0.9 | 1.7 | 0.00 | 0.17 | 0.17 | 80 | 1001.7 |
| 20260507123513 | 51 | 7 | 1.7 | 5.2 | 0.00 | 0.17 | 0.17 | 82 | 1001.5 |
| 20260507123010 | 51 | 24 | 1.7 | 7.8 | 0.00 | 0.17 | 0.17 | 82 | 1001.7 |
| 20260507122504 | 51 | 266 | 1.7 | 3.5 | 0.00 | 0.17 | 0.17 | 82 | 1001.9 |
| 20260507122001 | 51 | 268 | 2.6 | 2.6 | 0.00 | 0.17 | 0.17 | 82 | 1001.9 |
| 20260507121456 | 51 | 223 | 1.7 | 3.5 | 0.00 | 0.17 | 0.17 | 83 | 1001.8 |
| 20260507120953 | 50 | 15 | 0.9 | 3.5 | 0.00 | 0.17 | 0.17 | 88 | 1001.8 |
| 20260507120449 | 50 | 356 | 0.0 | 2.6 | 0.00 | 0.17 | 0.17 | 83 | 1002.0 |
| 20260507115946 | 51 | 320 | 3.5 | 6.1 | 0.00 | 0.17 | 0.17 | 85 | 1002.1 |
| 20260507115442 | 50 | 340 | 0.0 | 1.7 | 0.00 | 0.17 | 0.17 | 85 | 1001.7 |
| 20260507114938 | 50 | 30 | 1.7 | 2.6 | 0.00 | 0.17 | 0.17 | 89 | 1001.8 |
| 20260507114434 | 49 | 3 | 1.7 | 1.7 | 0.00 | 0.17 | 0.17 | 89 | 1002.3 |
| 20260507113932 | 51 | 24 | 0.9 | 0.9 | 0.00 | 0.17 | 0.17 | 87 | 1002.4 |
| 20260507113429 | 49 | 319 | 0.0 | 7.8 | 0.00 | 0.17 | 0.17 | 88 | 1002.2 |
| 20260507112926 | 49 | 339 | 0.9 | 6.1 | 0.00 | 0.17 | 0.17 | 89 | 1001.9 |
| 20260507112424 | 48 | 24 | 0.9 | 1.7 | 0.00 | 0.17 | 0.17 | 91 | 1002.2 |
| 20260507111920 | 48 | 335 | 0.0 | 0.9 | 0.00 | 0.17 | 0.17 | 94 | 1002.2 |
| 20260507111418 | 48 | 306 | 0.9 | 2.6 | 0.00 | 0.17 | 0.17 | 94 | 1001.8 |
| 20260507110914 | 47 | 297 | 0.9 | 1.7 | 0.00 | 0.17 | 0.17 | 94 | 1001.9 |
| 20260507110410 | 47 | 325 | 0.0 | 2.6 | 0.00 | 0.17 | 0.17 | 95 | 1001.7 |
| 20260507105907 | 47 | 350 | 0.0 | 0.9 | 0.00 | 0.17 | 0.17 | 96 | 1001.6 |
| 20260507105403 | 47 | 173 | 1.7 | 2.6 | 0.00 | 0.17 | 0.17 | 96 | 1001.8 |
| 20260507104900 | 47 | 308 | 0.9 | 1.7 | 0.00 | 0.17 | 0.17 | 96 | 1001.9 |
| 20260507104357 | 46 | 342 | 0.0 | 1.7 | 0.00 | 0.17 | 0.17 | 96 | 1001.4 |
| 20260507103853 | 47 | 340 | 0.0 | 0.9 | 0.00 | 0.17 | 0.17 | 98 | 1001.3 |
| 20260507103350 | 46 | 334 | 0.0 | 0.0 | 0.00 | 0.17 | 0.17 | 98 | 1001.6 |
| 20260507102846 | 45 | 3 | 0.0 | 0.9 | 0.00 | 0.17 | 0.17 | 99 | 1001.7 |
| 20260507102343 | 45 | 7 | 0.9 | 1.7 | 0.00 | 0.17 | 0.17 | 99 | 1001.4 |
| 20260507101839 | 44 | 340 | 0.0 | 0.9 | 0.00 | 0.17 | 0.17 | 99 | 1001.4 |
| 20260507101333 | 43 | 337 | 0.9 | 1.7 | 0.00 | 0.17 | 0.17 | 99 | 1001.4 |
| 20260507100831 | 44 | 339 | 0.0 | 0.0 | 0.00 | 0.17 | 0.17 | 99 | 1001.2 |